DW5686 Weather Reports


Display with metric or nautical units.
time (UTC)temp
F
wind
direction
speed
MPH
gust
MPH
rain 1hr
in
rain 24hr
in
rain mn
in
humidity
%
barometer
mb
20260508044002 55 0 0.0 1.0 0.00 0.02 0.00 92 1013.8
20260508043502 55 0 0.0 1.0 0.00 0.02 0.00 92 1013.9
20260508043023 55 25 0.0 1.0 0.00 0.02 0.00 92 1013.8
20260508042523 56 25 0.0 2.0 0.00 0.02 0.00 92 1013.9
20260508042023 56 25 0.0 2.0 0.00 0.02 0.00 92 1013.8
20260508041502 56 25 1.0 2.0 0.00 0.02 0.00 92 1013.7
20260508041003 56 25 0.0 2.0 0.00 0.02 0.00 92 1013.6
20260508040524 56 25 1.0 2.0 0.00 0.02 0.00 92 1013.8
20260508040004 56 25 0.0 1.0 0.00 0.02 0.00 92 1013.7
20260508035503 56 0 0.0 0.0 0.00 0.02 0.02 92 1013.7
20260508035002 56 0 0.0 0.0 0.00 0.02 0.02 92 1013.7
20260508034524 56 0 0.0 1.0 0.00 0.02 0.02 92 1013.8
20260508034003 56 0 0.0 2.0 0.00 0.02 0.02 92 1013.6
20260508033502 56 25 1.0 2.0 0.00 0.02 0.02 92 1013.6
20260508033002 57 25 2.0 2.0 0.00 0.02 0.02 92 1013.6
20260508032523 57 0 0.0 1.0 0.00 0.02 0.02 92 1013.5
20260508032003 57 0 0.0 1.0 0.00 0.02 0.02 91 1013.6
20260508031502 57 25 0.0 2.0 0.00 0.02 0.02 91 1013.6
20260508031003 57 25 0.0 2.0 0.00 0.02 0.02 91 1013.6
20260508030524 57 25 1.0 2.0 0.00 0.02 0.02 91 1013.5
20260508030002 57 0 0.0 1.0 0.00 0.02 0.02 91 1013.5
20260508025523 57 25 0.0 2.0 0.00 0.02 0.02 91 1013.5
20260508025002 57 25 0.0 2.0 0.00 0.02 0.02 91 1013.4
20260508024523 57 25 1.0 2.0 0.00 0.02 0.02 91 1013.4
20260508024002 57 0 0.0 2.0 0.00 0.02 0.02 91 1013.3
20260508023502 57 25 1.0 2.0 0.00 0.02 0.02 91 1013.2
20260508023002 58 25 0.0 3.0 0.00 0.02 0.02 89 1013.2
20260508022503 58 25 0.0 4.0 0.00 0.02 0.02 89 1013.2
20260508022003 58 25 2.0 7.0 0.00 0.02 0.02 89 1013.1
20260508021523 58 27 4.0 7.0 0.00 0.02 0.02 89 1013.1
20260508021023 58 16 1.0 5.0 0.00 0.02 0.02 89 1013.0
20260508020503 58 17 3.0 5.0 0.00 0.02 0.02 89 1012.8
20260508020024 58 30 2.0 6.0 0.00 0.02 0.02 89 1012.8
20260508015502 58 42 3.0 6.0 0.00 0.02 0.02 89 1012.7
20260508015003 58 36 2.0 5.0 0.00 0.02 0.02 89 1012.7
20260508014503 58 36 2.0 5.0 0.00 0.02 0.02 89 1012.6
20260508014003 58 36 2.0 4.0 0.00 0.02 0.02 89 1012.3
20260508013502 58 30 2.0 9.0 0.00 0.02 0.02 89 1012.3
20260508013023 58 41 4.0 9.0 0.00 0.02 0.02 89 1012.3
20260508012523 58 33 6.0 9.0 0.00 0.02 0.02 89 1012.0
20260508012003 58 23 4.0 9.0 0.00 0.02 0.02 89 1012.2
20260508011503 58 31 4.0 10.0 0.00 0.02 0.02 88 1012.1
20260508011023 58 27 6.0 10.0 0.00 0.02 0.02 88 1012.0
20260508010503 58 35 4.0 12.0 0.00 0.02 0.02 88 1011.8
20260508010003 58 27 6.0 12.0 0.00 0.02 0.02 89 1011.6
20260508005502 58 38 8.0 11.0 0.00 0.02 0.02 88 1011.9
20260508005003 58 29 5.0 8.0 0.00 0.02 0.02 88 1011.9
20260508004502 58 9 2.0 7.0 0.00 0.02 0.02 89 1011.7
20260508004003 58 23 3.0 7.0 0.00 0.02 0.02 89 1011.4
20260508003502 58 15 2.0 16.0 0.00 0.02 0.02 89 1011.1
20260508003004 58 25 6.0 16.0 0.00 0.02 0.02 89 1010.9
20260508002502 58 37 8.0 15.0 0.00 0.02 0.02 89 1010.9
20260508002003 58 4 4.0 12.0 0.00 0.02 0.02 89 1011.1
20260508001524 58 36 8.0 12.0 0.00 0.02 0.02 89 1010.8
20260508001004 59 21 8.0 12.0 0.00 0.02 0.02 89 1010.7
20260508000502 59 22 6.0 16.0 0.00 0.02 0.02 89 1010.6
20260508000003 59 358 6.0 16.0 0.00 0.02 0.02 89 1010.7
20260507235502 59 35 6.0 14.0 0.00 0.02 0.02 89 1010.6
20260507235004 59 11 6.0 18.0 0.00 0.02 0.02 89 1010.4
20260507234503 59 16 9.0 18.0 0.00 0.02 0.02 89 1009.5
20260507234004 59 27 8.0 16.0 0.00 0.02 0.02 89 1009.6
20260507233504 59 19 6.0 16.0 0.00 0.02 0.02 89 1009.6
20260507233004 59 29 11.0 16.0 0.00 0.02 0.02 89 1009.5
20260507232503 59 17 9.0 16.0 0.00 0.02 0.02 89 1009.1
20260507232004 59 23 12.0 20.0 0.00 0.02 0.02 89 1009.2
20260507231503 60 24 8.0 20.0 0.00 0.02 0.02 89 1009.5
20260507231004 60 22 12.0 20.0 0.00 0.02 0.02 89 1009.4
20260507230504 60 20 12.0 22.0 0.00 0.02 0.02 89 1009.3
20260507230004 60 24 13.0 22.0 0.00 0.02 0.02 89 1009.2
20260507225523 60 32 13.0 19.0 0.00 0.02 0.02 89 1008.7
20260507225002 60 11 7.0 26.0 0.00 0.02 0.02 88 1008.9
20260507224503 61 20 14.0 27.0 0.00 0.02 0.02 87 1008.2
20260507224002 62 21 17.0 27.0 0.00 0.02 0.02 86 1008.2
20260507223524 63 22 12.0 27.0 0.00 0.02 0.02 83 1008.2
20260507223004 64 29 13.0 27.0 0.00 0.02 0.02 81 1008.0
20260507222504 64 25 11.0 27.0 0.00 0.02 0.02 81 1008.3
20260507222002 65 19 16.0 27.0 0.00 0.02 0.02 79 1008.0
20260507221502 65 21 12.0 27.0 0.00 0.02 0.02 79 1008.0
20260507221003 65 22 11.0 28.0 0.00 0.02 0.02 79 1007.9
20260507220503 66 20 16.0 28.0 0.00 0.02 0.02 76 1007.9
20260507220003 70 21 11.0 23.0 0.00 0.02 0.02 71 1007.7
20260507215503 74 25 15.0 23.0 0.00 0.02 0.02 63 1007.6
20260507215002 77 219 2.0 12.0 0.00 0.02 0.02 62 1007.0
20260507214502 77 196 5.0 17.0 0.00 0.02 0.02 60 1006.8
20260507214002 77 230 5.0 17.0 0.00 0.02 0.02 60 1006.8
20260507213524 78 216 4.0 15.0 0.00 0.02 0.02 61 1006.5
20260507213003 78 194 2.0 15.0 0.00 0.02 0.02 59 1006.4
20260507212503 78 218 6.0 15.0 0.00 0.02 0.02 60 1006.2
20260507212003 78 211 5.0 17.0 0.00 0.02 0.02 59 1006.2
20260507211502 78 221 5.0 17.0 0.00 0.02 0.02 60 1006.2
20260507211003 77 177 8.0 21.0 0.00 0.02 0.02 61 1006.3
20260507210503 76 226 8.0 21.0 0.00 0.02 0.02 61 1006.3
20260507210003 76 197 5.0 10.0 0.00 0.02 0.02 60 1006.3
20260507205504 76 233 4.0 12.0 0.00 0.02 0.02 61 1006.2
20260507205025 76 206 4.0 12.0 0.00 0.02 0.02 61 1006.3
20260507204503 76 241 3.0 10.0 0.00 0.02 0.02 61 1006.6
20260507204004 77 202 2.0 10.0 0.00 0.02 0.02 62 1006.5
20260507203502 78 176 5.0 12.0 0.00 0.02 0.02 59 1006.4
20260507203003 78 187 5.0 12.0 0.01 0.02 0.02 57 1006.4
20260507202504 78 231 5.0 20.0 0.01 0.02 0.02 59 1006.5
20260507202004 77 216 6.0 20.0 0.01 0.02 0.02 59 1006.6
20260507201503 78 215 5.0 13.0 0.01 0.02 0.02 59 1006.8
20260507201003 78 179 4.0 14.0 0.02 0.02 0.02 60 1006.7
20260507200524 78 177 6.0 14.0 0.02 0.02 0.02 60 1006.8
20260507200003 78 214 4.0 12.0 0.02 0.02 0.02 58 1006.7
20260507195504 79 222 4.0 11.0 0.02 0.02 0.02 57 1006.8
20260507195023 78 203 4.0 11.0 0.02 0.02 0.02 60 1007.0
20260507194503 78 242 2.0 9.0 0.02 0.02 0.02 60 1007.0
20260507194002 78 177 4.0 8.0 0.02 0.02 0.02 59 1007.1
20260507193524 78 222 3.0 7.0 0.02 0.02 0.02 62 1007.1
20260507193024 77 224 3.0 12.0 0.01 0.01 0.01 61 1007.3
20260507192503 76 232 6.0 12.0 0.01 0.01 0.01 61 1007.5
20260507192003 76 204 4.0 11.0 0.01 0.01 0.01 62 1007.5
20260507191503 77 202 3.0 12.0 0.01 0.01 0.01 59 1007.7
20260507191003 78 211 4.0 12.0 0.00 0.00 0.00 59 1007.6
20260507190524 78 255 3.0 11.0 0.00 0.00 0.00 63 1007.7
20260507190004 76 250 3.0 11.0 0.00 0.00 0.00 65 1007.8
20260507185503 75 278 3.0 14.0 0.00 0.00 0.00 65 1007.8
20260507185003 76 220 3.0 14.0 0.00 0.00 0.00 65 1007.7
20260507184525 76 217 3.0 12.0 0.00 0.00 0.00 68 1007.8
20260507184004 76 222 5.0 12.0 0.00 0.00 0.00 64 1007.8
20260507183524 76 242 1.0 10.0 0.00 0.00 0.00 67 1007.6
20260507183002 75 197 5.0 11.0 0.00 0.00 0.00 65 1007.8
20260507182524 75 196 7.0 11.0 0.00 0.00 0.00 64 1007.8
20260507182003 75 246 3.0 8.0 0.00 0.00 0.00 70 1007.9
20260507181502 75 238 5.0 8.0 0.00 0.00 0.00 68 1007.8
20260507181024 74 220 3.0 8.0 0.00 0.00 0.00 69 1007.7
20260507180502 74 206 3.0 8.0 0.00 0.00 0.00 70 1007.8
20260507180002 74 212 4.0 7.0 0.00 0.00 0.00 71 1007.9
20260507175503 74 31 2.0 8.0 0.00 0.00 0.00 75 1008.0
20260507175003 72 214 3.0 9.0 0.00 0.00 0.00 71 1008.2
20260507174503 72 234 4.0 10.0 0.00 0.00 0.00 74 1008.3
20260507174003 73 200 4.0 10.0 0.00 0.00 0.00 74 1008.4
20260507173503 73 201 4.0 7.0 0.00 0.00 0.00 78 1008.6
20260507173002 72 197 2.0 7.0 0.00 0.00 0.00 81 1008.6
20260507172504 71 309 1.0 5.0 0.00 0.00 0.00 82 1008.7
20260507172003 70 233 2.0 5.0 0.00 0.00 0.00 81 1008.7
20260507171503 70 254 1.0 7.0 0.00 0.00 0.00 82 1008.6
20260507171002 69 222 3.0 7.0 0.00 0.00 0.00 82 1008.4
20260507170504 69 237 2.0 7.0 0.00 0.00 0.00 84 1008.2
20260507170003 68 250 1.0 7.0 0.00 0.00 0.00 84 1008.3
20260507165503 68 205 3.0 7.0 0.00 0.00 0.00 86 1008.9
20260507165004 68 208 3.0 8.0 0.00 0.00 0.00 84 1008.8
20260507164503 68 199 1.0 8.0 0.00 0.00 0.00 84 1008.8
20260507164004 69 115 2.0 7.0 0.00 0.00 0.00 86 1008.7
20260507163504 69 227 2.0 7.0 0.00 0.00 0.00 86 1008.8
20260507163003 69 225 2.0 7.0 0.00 0.00 0.00 86 1008.7
20260507162503 69 172 3.0 12.0 0.00 0.00 0.00 89 1008.7
20260507162024 68 233 3.0 12.0 0.00 0.00 0.00 89 1009.2
20260507161523 67 212 4.0 7.0 0.00 0.00 0.00 89 1009.3
20260507161003 67 209 4.0 7.0 0.00 0.00 0.00 91 1009.4
20260507160503 67 203 2.0 6.0 0.00 0.00 0.00 92 1009.3
20260507160004 66 217 2.0 7.0 0.00 0.00 0.00 92 1009.3
20260507155504 66 249 2.0 8.0 0.00 0.00 0.00 92 1009.2
20260507155004 66 209 4.0 8.0 0.00 0.00 0.00 92 1009.0
20260507154503 66 212 2.0 6.0 0.00 0.00 0.00 92 1008.9
20260507154003 66 240 1.0 7.0 0.00 0.00 0.00 92 1008.6
20260507153504 66 232 3.0 7.0 0.00 0.00 0.00 93 1008.5
20260507153004 66 194 2.0 5.0 0.00 0.00 0.00 93 1008.2
20260507152504 66 177 3.0 5.0 0.00 0.00 0.00 93 1008.1
20260507152004 66 71 2.0 3.0 0.00 0.00 0.00 93 1008.0
20260507151503 66 71 2.0 3.0 0.00 0.00 0.00 93 1007.8
20260507151003 65 70 0.0 4.0 0.00 0.00 0.00 93 1008.0
20260507150503 65 83 3.0 4.0 0.00 0.00 0.00 93 1008.1
20260507150003 65 181 1.0 2.0 0.00 0.00 0.00 93 1008.4
20260507145524 65 181 1.0 6.0 0.00 0.00 0.00 95 1008.7
20260507145004 65 181 2.0 6.0 0.00 0.00 0.00 93 1009.0
20260507144504 64 179 2.0 4.0 0.00 0.00 0.00 95 1009.3
20260507144003 64 199 2.0 6.0 0.00 0.00 0.00 95 1009.7
20260507143503 64 215 2.0 6.0 0.00 0.00 0.00 95 1009.8
20260507143004 64 242 1.0 3.0 0.00 0.00 0.00 95 1009.7
20260507142504 64 193 2.0 7.0 0.00 0.00 0.00 95 1009.9
20260507142003 64 197 3.0 7.0 0.00 0.00 0.00 95 1010.2
20260507141504 64 227 3.0 6.0 0.00 0.00 0.00 95 1010.2
20260507141004 64 239 1.0 7.0 0.00 0.00 0.00 95 1010.2
20260507140503 64 216 3.0 7.0 0.00 0.00 0.00 95 1009.9
20260507140024 64 173 2.0 6.0 0.00 0.00 0.00 95 1009.5
20260507135524 64 228 2.0 7.0 0.00 0.00 0.00 95 1009.3
20260507135003 64 177 3.0 7.0 0.00 0.00 0.00 95 1009.1
20260507134525 64 162 5.0 7.0 0.00 0.00 0.00 95 1009.1
20260507134025 64 167 3.0 6.0 0.00 0.00 0.00 95 1009.2
20260507133503 64 161 4.0 7.0 0.00 0.00 0.00 95 1009.3
20260507133003 64 167 2.0 7.0 0.00 0.00 0.00 95 1009.3
20260507132524 64 162 4.0 7.0 0.00 0.00 0.00 95 1009.3
20260507132003 64 161 2.0 6.0 0.00 0.00 0.00 93 1009.4
20260507131503 64 161 1.0 6.0 0.00 0.00 0.00 95 1009.3
20260507131003 64 215 2.0 5.0 0.00 0.00 0.00 93 1009.7
20260507130504 64 277 2.0 4.0 0.00 0.00 0.00 95 1009.8
20260507130004 64 279 1.0 2.0 0.00 0.00 0.00 95 1009.5
20260507125503 64 279 0.0 2.0 0.00 0.00 0.00 95 1009.4
20260507125004 64 279 0.0 2.0 0.00 0.00 0.00 95 1009.3
20260507124504 64 279 1.0 4.0 0.00 0.00 0.00 95 1009.6
20260507124004 64 279 1.0 4.0 0.00 0.00 0.00 95 1009.7
20260507123504 64 39 0.0 3.0 0.00 0.00 0.00 95 1009.7
20260507123004 64 67 0.0 6.0 0.00 0.00 0.00 93 1009.9
20260507122504 64 48 2.0 6.0 0.00 0.00 0.00 93 1010.0
20260507122004 63 165 1.0 8.0 0.00 0.00 0.00 93 1010.4
20260507121525 64 273 1.0 8.0 0.00 0.00 0.00 93 1010.6
20260507121003 64 189 1.0 7.0 0.00 0.00 0.00 93 1010.6
20260507120503 64 178 1.0 7.0 0.00 0.00 0.00 93 1010.5
20260507120003 63 233 0.0 3.0 0.00 0.00 0.00 93 1010.5
20260507115503 63 233 0.0 3.0 0.00 0.00 0.00 93 1010.5
20260507115004 63 198 1.0 3.0 0.00 0.00 0.00 93 1010.4
20260507114503 64 198 0.0 2.0 0.00 0.00 0.00 93 1010.0
20260507114003 63 0 0.0 2.0 0.00 0.00 0.00 93 1009.6
20260507113503 63 198 1.0 3.0 0.00 0.00 0.00 93 1009.4
20260507113025 63 198 1.0 3.0 0.00 0.00 0.00 93 1009.4
20260507112503 63 0 0.0 3.0 0.00 0.00 0.00 93 1009.4
20260507112024 63 198 0.0 3.0 0.00 0.00 0.00 93 1009.6
20260507111504 63 198 2.0 4.0 0.00 0.00 0.00 95 1009.7
20260507111003 63 248 2.0 4.0 0.00 0.00 0.00 95 1009.8
20260507110504 63 165 0.0 3.0 0.00 0.00 0.00 95 1010.0
20260507110004 63 165 1.0 3.0 0.00 0.00 0.00 95 1009.9
20260507105504 63 149 0.0 2.0 0.00 0.00 0.00 93 1010.3
20260507105003 63 149 1.0 2.0 0.00 0.00 0.00 93 1010.0
20260507104524 63 149 0.0 2.0 0.00 0.00 0.00 93 1009.8
20260507104025 63 0 0.0 2.0 0.00 0.00 0.00 93 1009.8
20260507103504 63 149 0.0 2.0 0.00 0.00 0.00 93 1009.8
20260507103024 63 0 0.0 2.0 0.00 0.00 0.00 93 1009.8
20260507102503 63 149 1.0 2.0 0.00 0.00 0.00 93 1009.8
20260507102003 63 0 0.0 3.0 0.00 0.00 0.00 93 1010.1
20260507101503 63 149 1.0 3.0 0.00 0.00 0.00 93 1009.7
20260507101003 63 149 2.0 2.0 0.00 0.00 0.00 93 1009.5
20260507100504 63 149 1.0 2.0 0.00 0.00 0.00 93 1009.4
20260507100025 63 0 0.0 2.0 0.00 0.00 0.00 93 1009.4
20260507095503 63 149 0.0 3.0 0.00 0.00 0.00 93 1009.1
20260507095003 63 149 2.0 3.0 0.00 0.00 0.00 93 1009.1
20260507094503 63 0 0.0 4.0 0.00 0.00 0.00 93 1009.4
20260507094003 63 166 3.0 4.0 0.00 0.00 0.00 93 1009.2
20260507093504 63 216 1.0 4.0 0.00 0.00 0.00 93 1009.1
20260507093004 63 216 2.0 5.0 0.00 0.00 0.00 93 1009.6
20260507092504 63 216 0.0 5.0 0.00 0.00 0.00 93 1009.8
20260507092004 63 258 1.0 5.0 0.00 0.00 0.00 93 1009.8
20260507091503 63 205 2.0 5.0 0.00 0.00 0.00 93 1009.4
20260507091004 63 217 2.0 6.0 0.00 0.00 0.00 93 1009.7
20260507090503 63 214 2.0 6.0 0.00 0.00 0.00 93 1010.0
20260507090004 63 310 1.0 5.0 0.00 0.00 0.00 93 1010.1
20260507085524 63 175 2.0 6.0 0.00 0.00 0.00 93 1010.0
20260507085025 63 194 2.0 6.0 0.00 0.00 0.00 93 1010.0
20260507084503 63 205 1.0 4.0 0.00 0.00 0.00 93 1010.1
20260507084004 63 236 2.0 4.0 0.00 0.00 0.00 93 1010.2
20260507083524 63 176 1.0 2.0 0.00 0.00 0.00 93 1010.2
20260507083005 63 0 0.0 2.0 0.00 0.00 0.00 93 1010.0
20260507082504 63 176 0.0 2.0 0.00 0.00 0.00 93 1009.9
20260507082003 63 176 0.0 2.0 0.00 0.00 0.00 93 1009.6
20260507081503 63 176 1.0 2.0 0.00 0.00 0.00 93 1009.7
20260507081004 63 176 0.0 3.0 0.00 0.00 0.00 93 1009.8
20260507080503 63 185 2.0 4.0 0.00 0.00 0.00 93 1009.9
20260507080004 63 215 1.0 4.0 0.00 0.00 0.00 93 1010.1
20260507075503 63 215 1.0 4.0 0.00 0.00 0.00 93 1010.0
20260507075003 63 215 0.0 2.0 0.00 0.00 0.00 93 1010.2
20260507074524 63 0 0.0 2.0 0.00 0.00 0.00 93 1010.3
20260507074003 63 215 0.0 2.0 0.00 0.00 0.00 93 1010.3
20260507073503 63 215 0.0 3.0 0.00 0.00 0.00 93 1010.3
20260507073003 63 215 2.0 6.0 0.00 0.00 0.00 93 1010.0
20260507072523 63 215 1.0 6.0 0.00 0.00 0.00 93 1009.9
20260507072003 63 215 1.0 5.0 0.00 0.00 0.00 93 1010.1
20260507071502 63 200 2.0 5.0 0.00 0.00 0.00 93 1009.8
20260507071023 63 156 2.0 5.0 0.00 0.00 0.00 93 1009.2
20260507070524 63 167 1.0 4.0 0.00 0.00 0.00 93 1010.3
20260507070003 63 39 1.0 3.0 0.00 0.00 0.00 93 1010.8
20260507065502 63 39 1.0 4.0 0.00 0.00 0.00 93 1011.5
20260507065003 63 41 1.0 6.0 0.00 0.00 0.00 93 1011.7
20260507064502 63 89 0.0 6.0 0.00 0.00 0.00 93 1011.8
20260507064002 63 89 0.0 3.0 0.00 0.00 0.00 93 1011.3
20260507063523 63 89 1.0 3.0 0.00 0.00 0.00 93 1011.5
20260507063002 63 186 2.0 3.0 0.00 0.00 0.00 93 1011.9
20260507062503 63 186 0.0 4.0 0.00 0.00 0.00 93 1011.9
20260507062002 63 186 2.0 4.0 0.00 0.00 0.00 93 1012.2
20260507061502 63 193 1.0 4.0 0.00 0.00 0.00 93 1012.0
20260507061003 63 193 1.0 6.0 0.00 0.00 0.00 93 1012.0
20260507060503 63 193 1.0 8.0 0.00 0.00 0.00 93 1012.1
20260507060003 63 155 5.0 8.0 0.00 0.00 0.00 93 1011.8
20260507055503 63 147 2.0 5.0 0.00 0.00 0.00 93 1012.2
20260507055024 63 1 1.0 5.0 0.00 0.00 0.00 93 1012.5
20260507054502 63 28 1.0 12.0 0.00 0.00 0.00 93 1012.6
20260507054003 63 28 1.0 12.0 0.00 0.00 0.00 93 1012.8
20260507053502 63 24 1.0 7.0 0.00 0.00 0.00 93 1012.7
20260507053003 64 339 2.0 7.0 0.00 0.00 0.00 93 1012.3
20260507052502 63 203 1.0 3.0 0.00 0.00 0.00 93 1012.2
20260507052003 63 203 2.0 2.0 0.00 0.00 0.00 93 1012.0
20260507051502 63 0 0.0 4.0 0.00 0.00 0.00 93 1012.0
20260507051002 63 202 0.0 5.0 0.00 0.00 0.00 93 1011.9
20260507050503 63 196 2.0 6.0 0.00 0.00 0.00 93 1011.7
20260507050024 63 148 2.0 7.0 0.00 0.00 0.00 93 1011.5
20260507045503 63 150 3.0 7.0 0.00 0.00 0.00 93 1011.5
20260507045003 63 150 2.0 7.0 0.00 0.00 0.00 92 1011.5
20260507044502 63 173 3.0 7.0 0.00 0.00 0.00 92 1011.6